Regional Weather Roundup
Issued by NWS Midland/Odessa, TX

Home | Current Version | Previous Version | Text Only | Print | Product List | Glossary On
Versions: 1 2 3 4 5 6 7 8 9 10 11 12 13 14 15 16 17 18 19 20 21 22 23 24 25 26 27 28 29 30 31 32 33 34 35 36 37 38 39 40 41 42 43 44 45 46 47 48 49 50
000
ASUS44 KMAF 071110
RWRMAF
MIDLAND AREA WEATHER ROUNDUP
NATIONAL WEATHER SERVICE MIDLAND TX
500 AM CST WED DEC 07 2016

...IN SOUTHWEST TEXAS AND SOUTHEAST NEW MEXICO...

CITY           SKY/WX    TMP DP  RH WIND       PRES   REMARKS
ALPINE         PTCLDY    46  36  67 W12       30.02F
ANDREWS        CLOUDY    34  34 100 S7        29.93F FOG     WCI  28
ARTESIA        CLOUDY    34  34 100 S12       29.88F WCI  25
BIG SPRING     CLOUDY    37  36  95 SE10      29.97F WCI  30
CARLSBAD       CLOUDY    33  31  92 S10       29.90F WCI  25
DRYDEN           N/A     42  40  92 CALM      29.98F
FORT STOCKTON  CLOUDY    36  33  89 W5        29.96S WCI  32
GUAD PASS      NOT AVBL
HOBBS          CLOUDY    30  30 100 S5        29.92F WCI  25
MARFA          CLOUDY    40  34  79 VRB5      30.00S WCI  37
MIDLAND AIRPK  CLOUDY    37  37 100 S8        29.94F FOG     WCI  31
MIDLAND INTL   FOG       36  34  92 SE9       29.94F VSB 1   WCI  29
ODESSA         CLOUDY    36  33  89 SE8       29.94F WCI  30
PECOS          CLOUDY    36  34  94 CALM      29.96F
PRESIDIO       FAIR      46  40  79 N3        29.95F
SEMINOLE       CLOUDY    33  33  99 SE5       29.94F FOG     WCI  29
SNYDER         CLOUDY    33  29  85 E3        29.97F
WINK           CLOUDY    36  35  96 SE6       29.93F WCI  31
$$
...OTHER STATIONS IN TEXAS...

CITY           SKY/WX    TMP DP  RH WIND       PRES   REMARKS
ABILENE        CLOUDY    33  31  92 SE5       30.01F WCI  29
AMARILLO       CLOUDY    22  18  85 SE10      29.92F WCI  11
AUSTIN         CLEAR     37  36  96 CALM      30.04F
BROWNSVILLE    PTCLDY    66  66 100 E6        29.95F
CORPUS CHRISTI PTCLDY    52  51  97 NE9       30.00F
DALLAS FTW     PTCLDY    36  32  85 N7        30.04F WCI  30
DEL RIO        CLOUDY    43  42  97 E5        30.02S
EL PASO        CLOUDY    50  31  48 SW8       29.94F
HOUSTON INT    MOCLDY    50  47  89 N3        30.05S
LUBBOCK        CLOUDY    29  26  89 SE5       29.93F WCI  24
SAN ANGELO     CLOUDY    40  39  97 SE5       30.00F WCI  37
SAN ANTONIO    CLEAR     44  42  93 CALM      30.03S
WACO           CLOUDY    46  43  89 NE5       30.05F
WICHITA FALLS  NOT AVBL
$$
...OTHER LOCATIONS IN NEW MEXICO...

CITY           SKY/WX    TMP DP  RH WIND       PRES   REMARKS
ALAMAGORDO     NOT AVBL
ALBUQUERQUE    CLEAR     33  20  58 SE7       29.90S WCI  27
CANNON AFB     CLOUDY    25  25 100 SE5       29.88F WCI  19
CLOVIS         CLOUDY    21  18  86 S3        29.89F
HOLLOMAN AFB   CLOUDY    47  29  50 SE10      29.96S
ROSWELL        CLOUDY    30  26  85 N5        29.89R WCI  25
RUIDOSO        NOT AVBL
SANTA FE       CLEAR     31  18  58 CALM      29.86F
TRUTH OR CONSE MOCLDY    38  21  50 NW7       29.90R WCI  33
TUCUMCARI      CLOUDY    30  24  78 SW7       29.85S WCI  23
$$




USA.gov is the U.S. government's official web portal to all federal, state and local government web resources and services.